Fayetteville, AR

11:55 AM CDT on April 28, 2017 (GMT -0500)
Drake

Weather History for KFYV - December, 2013

Change the Weather History Date:

Monday, December 2, 2013

  Actual Average Record
Temperature  
Mean Temperature 50 °F 41 °F  
Max Temperature 64 °F 52 °F 75 °F (2012)
Min Temperature 35 °F 30 °F 9 °F (1985)
Degree Days  
Heating Degree Days 15 24  
Month to date heating degree days 32 48  
Since 1 July heating degree days 921 877  
Moisture  
Dew Point 42 °F    
Average Humidity 74    
Maximum Humidity 100    
Minimum Humidity 48    
Precipitation  
Precipitation 0.00 in 0.13 in 0.55 in (1997)
Month to date precipitation 0.00 0.25  
Year to date precipitation 42.53 45.52  
Sea Level Pressure  
Sea Level Pressure 29.77 in    
Wind  
Wind Speed 2 mph (SW)    
Max Wind Speed 10 mph    
Max Gust Speed 26 mph    
Visibility 5 miles    
Events Fog    
T = Trace of Precipitation, MM = Missing Value Source: NWS Daily Summary

Daily Weather History Graph

Daily Weather History Graph

Search for Another Location

Airport or City:

Trip Planner

Search our weather history database for the weather conditions in past years. The results will help you decide how hot, cold, wet, or windy it might be!

Date:

Astronomy

Dec. 02, 2013 Rise Set
Actual Time 7:09 AM CST 5:02 PM CST
Civil Twilight 6:41 AM CST 5:30 PM CST
Nautical Twilight 6:09 AM CST 6:02 PM CST
Astronomical Twilight 5:39 AM CST 6:33 PM CST
Moon 6:37 AM CST (12/2) 5:05 PM CST (12/2)
Length of Visible Light 10h 48m
Length of Day
9h 52m
Waning Crescent, 0% of the Moon is Illuminated
Dec 2
Waning Crescent
Dec 2
New
Dec 9
First Quarter
Dec 17
Full
Dec 25
Last Quarter

Hourly Weather History & Observations

Time (CST) Temp. Windchill Dew Point Humidity Pressure Visibility Wind Dir Wind Speed Gust Speed Precip Events Conditions
12:53 AM 39.9 °F - 39.9 °F 100% 29.88 in 0.2 mi Calm Calm - N/A Fog Fog
1:53 AM 42.1 °F - 42.1 °F 100% 29.87 in 0.2 mi Calm Calm - N/A Fog Fog
2:28 AM 42.8 °F - 42.8 °F 100% 29.87 in 0.8 mi Calm Calm - N/A   Overcast
2:36 AM 42.8 °F - 42.8 °F 100% 29.87 in 1.5 mi Calm Calm - N/A   Overcast
2:46 AM 42.8 °F - 42.8 °F 100% 29.86 in 2.5 mi Calm Calm - N/A   Overcast
2:53 AM 43.0 °F - 43.0 °F 100% 29.86 in 3.0 mi Calm Calm - N/A   Overcast
3:53 AM 43.0 °F - 43.0 °F 100% 29.84 in 5.0 mi Calm Calm - N/A   Overcast
4:53 AM 44.1 °F - 44.1 °F 100% 29.83 in 4.0 mi Calm Calm - N/A   Overcast
5:17 AM 44.6 °F - 42.8 °F 93% 29.83 in 6.0 mi Calm Calm - N/A   Overcast
5:53 AM 44.1 °F - 44.1 °F 100% 29.82 in 5.0 mi Calm Calm - N/A   Overcast
6:53 AM 44.1 °F - 44.1 °F 100% 29.82 in 3.0 mi Calm Calm - N/A   Overcast
7:53 AM 39.9 °F - 39.9 °F 100% 29.82 in 0.5 mi Calm Calm - N/A Fog Fog
8:53 AM 44.1 °F 42.5 °F 44.1 °F 100% 29.80 in 0.2 mi Variable 3.5 mph - N/A Fog Fog
9:22 AM 46.4 °F - 46.4 °F 100% 29.79 in 2.0 mi Calm Calm - N/A   Mostly Cloudy
9:27 AM 46.4 °F - 46.4 °F 100% 29.79 in 3.0 mi Calm Calm - N/A   Scattered Clouds
9:53 AM 50.0 °F - 48.0 °F 93% 29.80 in 6.0 mi Calm Calm - N/A   Clear
10:53 AM 55.9 °F - 48.9 °F 77% 29.78 in 10.0 mi Calm Calm - N/A   Clear
11:53 AM 60.1 °F - 46.9 °F 62% 29.75 in 10.0 mi SSW 6.9 mph - N/A   Clear
12:53 PM 63.0 °F - 46.9 °F 56% 29.72 in 10.0 mi SW 3.5 mph - N/A   Clear
1:53 PM 64.0 °F - 45.0 °F 50% 29.68 in 10.0 mi SSW 4.6 mph - N/A   Clear
2:53 PM 64.0 °F - 44.1 °F 48% 29.67 in 10.0 mi SW 5.8 mph - N/A   Clear
3:53 PM 61.0 °F - 44.1 °F 54% 29.68 in 10.0 mi WSW 8.1 mph - N/A   Clear
4:53 PM 57.0 °F - 45.0 °F 64% 29.69 in 10.0 mi SW 6.9 mph - N/A   Clear
5:53 PM 51.1 °F - 44.1 °F 77% 29.70 in 10.0 mi South 3.5 mph - N/A   Clear
6:53 PM 45.0 °F - 41.0 °F 86% 29.71 in 10.0 mi Calm Calm - N/A   Clear
7:53 PM 43.0 °F - 41.0 °F 93% 29.73 in 9.0 mi Calm Calm - N/A   Clear
8:53 PM 39.0 °F - 37.9 °F 96% 29.71 in 4.0 mi Calm Calm - N/A   Clear
9:11 PM 39.2 °F - 39.2 °F 100% 29.70 in 2.5 mi Calm Calm - N/A   Clear
9:19 PM 39.2 °F - 39.2 °F 100% 29.69 in 7.0 mi Calm Calm - N/A   Clear
9:53 PM 37.9 °F - 37.0 °F 97% 29.70 in 6.0 mi Calm Calm - N/A   Clear
10:53 PM 37.0 °F - 37.0 °F 100% 29.71 in 5.0 mi Calm Calm - N/A   Clear
11:40 PM 35.6 °F - 35.6 °F 100% 29.71 in 1.8 mi Calm Calm - N/A   Clear
11:45 PM 35.6 °F - 35.6 °F 100% 29.71 in 0.8 mi Calm Calm - N/A   Mist
11:53 PM 36.0 °F - 36.0 °F 100% 29.71 in 1.2 mi Calm Calm - N/A   Partly Cloudy
11:56 PM 35.6 °F - 35.6 °F 100% 29.71 in 3.0 mi Calm Calm - N/A   Partly Cloudy